Time,TemperatureF,DewpointF,PressureIn,WindDirection,WindDirectionDegrees,WindSpeedMPH,WindSpeedGustMPH,Humidity,HourlyPrecipIn,Conditions,Clouds,dailyrainin,SoftwareType,DateUTC
2013-05-18 00:01:00,70.0,65.3,30.10,SW,223,6.0,7.0,85,0.00,,---,0.00,VWS V14.01,2013-05-18 04:01:00,
2013-05-18 00:02:00,70.0,65.3,30.10,SW,236,5.0,7.0,85,0.00,,---,0.00,VWS V14.01,2013-05-18 04:02:00,
2013-05-18 00:07:00,70.0,65.3,30.10,SW,215,5.0,9.0,85,0.00,,---,0.00,VWS V14.01,2013-05-18 04:07:00,
2013-05-18 00:12:00,69.9,65.2,30.10,SW,234,6.0,9.0,85,0.00,,---,0.00,VWS V14.01,2013-05-18 04:12:00,
2013-05-18 00:17:00,69.8,65.1,30.10,WSW,239,5.0,9.0,85,0.00,,---,0.00,VWS V14.01,2013-05-18 04:17:00,
2013-05-18 00:22:00,69.7,65.0,30.10,SW,224,4.0,9.0,85,0.00,,---,0.00,VWS V14.01,2013-05-18 04:22:00,
2013-05-18 00:27:00,69.7,65.0,30.10,WSW,253,3.0,9.0,85,0.00,,---,0.00,VWS V14.01,2013-05-18 04:27:00,
2013-05-18 00:32:00,69.8,64.8,30.10,WSW,248,3.0,7.0,84,0.00,,---,0.00,VWS V14.01,2013-05-18 04:32:00,
2013-05-18 00:37:00,69.8,64.8,30.10,SW,235,6.0,7.0,84,0.00,,---,0.00,VWS V14.01,2013-05-18 04:37:00,
2013-05-18 00:42:00,69.9,64.8,30.10,WSW,240,6.0,7.0,84,0.00,,---,0.00,VWS V14.01,2013-05-18 04:42:00,
2013-05-18 00:47:00,69.9,64.8,30.10,WSW,239,4.0,7.0,84,0.00,,---,0.00,VWS V14.01,2013-05-18 04:47:00,
2013-05-18 00:52:00,69.9,64.5,30.10,WSW,238,6.0,7.0,83,0.00,,---,0.00,VWS V14.01,2013-05-18 04:52:00,
2013-05-18 00:57:00,70.0,64.6,30.10,WSW,249,5.0,7.0,83,0.00,,---,0.00,VWS V14.01,2013-05-18 04:57:00,
2013-05-18 01:03:00,70.1,64.4,30.10,WSW,242,7.0,9.0,82,0.00,,---,0.00,VWS V14.01,2013-05-18 05:03:00,
2013-05-18 01:08:00,70.3,64.6,30.10,WSW,248,5.0,9.0,82,0.00,,---,0.00,VWS V14.01,2013-05-18 05:08:00,
2013-05-18 01:13:00,70.4,64.3,30.10,WSW,257,4.0,9.0,81,0.00,,---,0.00,VWS V14.01,2013-05-18 05:13:00,
2013-05-18 01:18:00,70.5,64.4,30.10,West,261,9.0,9.0,81,0.00,,---,0.00,VWS V14.01,2013-05-18 05:18:00,
2013-05-18 01:23:00,70.5,64.4,30.10,West,259,3.0,9.0,81,0.00,,---,0.00,VWS V14.01,2013-05-18 05:23:00,
2013-05-18 01:28:00,70.4,64.7,30.10,WSW,243,4.0,4.0,82,0.00,,---,0.00,VWS V14.01,2013-05-18 05:28:00,
2013-05-18 01:33:00,70.3,64.6,30.09,SW,235,3.0,5.0,82,0.00,,---,0.00,VWS V14.01,2013-05-18 05:33:00,
2013-05-18 01:38:00,70.1,64.7,30.09,WSW,247,4.0,5.0,83,0.00,,---,0.00,VWS V14.01,2013-05-18 05:38:00,
2013-05-18 01:43:00,70.0,64.9,30.09,WSW,238,4.0,5.0,84,0.00,,---,0.00,VWS V14.01,2013-05-18 05:43:00,
2013-05-18 01:48:00,69.9,65.2,30.10,WSW,244,3.0,6.0,85,0.00,,---,0.00,VWS V14.01,2013-05-18 05:48:00,
2013-05-18 01:53:00,69.7,65.0,30.10,SW,229,4.0,7.0,85,0.00,,---,0.00,VWS V14.01,2013-05-18 05:53:00,
2013-05-18 01:58:00,69.6,64.9,30.10,SW,232,6.0,7.0,85,0.00,,---,0.00,VWS V14.01,2013-05-18 05:58:00,
2013-05-18 02:03:00,69.5,65.1,30.10,SW,224,7.0,7.0,86,0.00,,---,0.00,VWS V14.01,2013-05-18 06:03:00,
2013-05-18 02:08:00,69.6,65.2,30.09,SW,229,5.0,9.0,86,0.00,,---,0.00,VWS V14.01,2013-05-18 06:08:00,
2013-05-18 02:13:00,69.5,65.5,30.10,SW,225,5.0,9.0,87,0.00,,---,0.00,VWS V14.01,2013-05-18 06:13:00,
2013-05-18 02:19:00,69.5,65.5,30.10,SW,217,6.0,9.0,87,0.00,,---,0.00,VWS V14.01,2013-05-18 06:19:00,
2013-05-18 02:24:00,69.5,65.8,30.10,SW,221,4.0,9.0,88,0.00,,---,0.00,VWS V14.01,2013-05-18 06:24:00,
2013-05-18 02:29:00,69.4,65.7,30.10,SW,220,5.0,6.0,88,0.00,,---,0.00,VWS V14.01,2013-05-18 06:29:00,
2013-05-18 02:34:00,69.3,65.6,30.10,SW,223,6.0,7.0,88,0.00,,---,0.00,VWS V14.01,2013-05-18 06:34:00,
2013-05-18 02:39:00,69.3,65.6,30.10,SW,222,5.0,10.0,88,0.00,,---,0.00,VWS V14.01,2013-05-18 06:39:00,
2013-05-18 02:44:00,69.2,65.8,30.09,WSW,238,4.0,10.0,89,0.00,,---,0.00,VWS V14.01,2013-05-18 06:44:00,
2013-05-18 02:49:00,69.3,65.9,30.10,SW,217,5.0,10.0,89,0.00,,---,0.00,VWS V14.01,2013-05-18 06:49:00,
2013-05-18 02:54:00,69.4,65.7,30.10,SW,221,4.0,10.0,88,0.00,,---,0.00,VWS V14.01,2013-05-18 06:54:00,
2013-05-18 02:59:00,69.4,65.7,30.10,WSW,245,5.0,7.0,88,0.00,,---,0.00,VWS V14.01,2013-05-18 06:59:00,
2013-05-18 03:04:00,69.5,65.8,30.10,SW,225,6.0,9.0,88,0.00,,---,0.00,VWS V14.01,2013-05-18 07:04:00,
2013-05-18 03:09:00,69.5,66.1,30.10,SW,229,3.0,10.0,89,0.00,,---,0.00,VWS V14.01,2013-05-18 07:09:00,
2013-05-18 03:14:00,69.5,65.8,30.10,SW,234,3.0,10.0,88,0.00,,---,0.00,VWS V14.01,2013-05-18 07:14:00,
2013-05-18 03:19:00,69.5,65.8,30.10,WSW,242,0.0,10.0,88,0.00,,---,0.00,VWS V14.01,2013-05-18 07:19:00,
2013-05-18 03:24:00,69.5,65.8,30.10,WSW,242,1.0,10.0,88,0.00,,---,0.00,VWS V14.01,2013-05-18 07:24:00,
2013-05-18 03:29:00,69.4,66.0,30.10,SE,127,5.0,5.0,89,0.00,,---,0.00,VWS V14.01,2013-05-18 07:29:00,
2013-05-18 03:34:00,69.4,66.0,30.10,SE,136,5.0,7.0,89,0.00,,---,0.00,VWS V14.01,2013-05-18 07:34:00,
2013-05-18 03:39:00,69.4,66.0,30.10,SE,133,5.0,7.0,89,0.00,,---,0.00,VWS V14.01,2013-05-18 07:39:00,
2013-05-18 03:44:00,69.4,66.3,30.10,South,171,2.0,7.0,90,0.00,,---,0.00,VWS V14.01,2013-05-18 07:44:00,
2013-05-18 03:49:00,69.2,66.2,30.10,South,176,2.0,7.0,90,0.00,,---,0.00,VWS V14.01,2013-05-18 07:49:00,
2013-05-18 03:54:00,69.2,66.2,30.10,SE,137,4.0,7.0,90,0.00,,---,0.00,VWS V14.01,2013-05-18 07:54:00,
2013-05-18 03:59:00,69.2,66.2,30.10,SE,134,8.0,9.0,90,0.00,,---,0.00,VWS V14.01,2013-05-18 07:59:00,
2013-05-18 04:04:00,69.2,66.5,30.11,SE,143,3.0,10.0,91,0.00,,---,0.00,VWS V14.01,2013-05-18 08:04:00,
2013-05-18 04:09:00,69.1,66.4,30.10,SSE,153,5.0,10.0,91,0.00,,---,0.00,VWS V14.01,2013-05-18 08:09:00,
2013-05-18 04:14:00,69.0,66.3,30.10,South,188,4.0,10.0,91,0.00,,---,0.00,VWS V14.01,2013-05-18 08:14:00,
2013-05-18 04:19:00,68.9,66.2,30.10,SSE,165,5.0,10.0,91,0.00,,---,0.00,VWS V14.01,2013-05-18 08:19:00,
2013-05-18 04:24:00,68.8,66.1,30.11,SSE,165,5.0,10.0,91,0.00,,---,0.00,VWS V14.01,2013-05-18 08:24:00,
2013-05-18 04:29:00,68.8,66.1,30.11,SE,142,3.0,6.0,91,0.00,,---,0.00,VWS V14.01,2013-05-18 08:29:00,
2013-05-18 04:34:00,68.8,66.4,30.11,SE,142,4.0,7.0,92,0.00,,---,0.00,VWS V14.01,2013-05-18 08:34:00,
2013-05-18 04:39:00,68.7,66.3,30.11,SE,136,4.0,7.0,92,0.00,,---,0.00,VWS V14.01,2013-05-18 08:39:00,
2013-05-18 04:44:00,68.7,66.3,30.11,SE,136,5.0,9.0,92,0.00,,---,0.00,VWS V14.01,2013-05-18 08:44:00,
2013-05-18 04:49:00,68.7,66.3,30.11,SE,143,4.0,9.0,92,0.00,,---,0.00,VWS V14.01,2013-05-18 08:49:00,
2013-05-18 04:54:00,68.7,66.6,30.11,South,171,7.0,9.0,93,0.00,,---,0.00,VWS V14.01,2013-05-18 08:54:00,
2013-05-18 04:59:00,68.7,66.6,30.11,South,180,5.0,8.0,93,0.00,,---,0.00,VWS V14.01,2013-05-18 08:59:00,
2013-05-18 05:04:00,68.6,66.5,30.11,South,183,7.0,9.0,93,0.00,,---,0.00,VWS V14.01,2013-05-18 09:04:00,
2013-05-18 05:09:00,68.6,66.5,30.11,South,186,6.0,9.0,93,0.00,,---,0.00,VWS V14.01,2013-05-18 09:09:00,
2013-05-18 05:15:00,68.5,66.4,30.11,South,186,7.0,9.0,93,0.00,,---,0.00,VWS V14.01,2013-05-18 09:15:00,
2013-05-18 05:20:00,68.5,66.4,30.11,South,190,9.0,9.0,93,0.00,,---,0.00,VWS V14.01,2013-05-18 09:20:00,
2013-05-18 05:25:00,68.5,66.4,30.12,South,179,6.0,10.0,93,0.00,,---,0.00,VWS V14.01,2013-05-18 09:25:00,
2013-05-18 05:30:00,68.5,66.4,30.12,South,190,5.0,7.0,93,0.00,,---,0.00,VWS V14.01,2013-05-18 09:30:00,
2013-05-18 05:35:00,68.5,66.7,30.11,SSW,198,8.0,10.0,94,0.00,,---,0.00,VWS V14.01,2013-05-18 09:35:00,
2013-05-18 05:40:00,68.6,66.8,30.11,SSW,192,9.0,11.0,94,0.00,,---,0.00,VWS V14.01,2013-05-18 09:40:00,
2013-05-18 05:45:00,68.5,66.7,30.11,SSW,194,9.0,11.0,94,0.00,,---,0.00,VWS V14.01,2013-05-18 09:45:00,
2013-05-18 05:50:00,68.5,66.7,30.12,SSW,205,4.0,11.0,94,0.00,,---,0.00,VWS V14.01,2013-05-18 09:50:00,
2013-05-18 05:55:00,68.5,66.7,30.12,SSW,203,7.0,11.0,94,0.00,,---,0.00,VWS V14.01,2013-05-18 09:55:00,
2013-05-18 06:00:00,68.5,66.7,30.12,SSW,196,6.0,7.0,94,0.00,,---,0.00,VWS V14.01,2013-05-18 10:00:00,
2013-05-18 06:05:00,68.5,66.7,30.12,SSW,202,6.0,7.0,94,0.00,,---,0.00,VWS V14.01,2013-05-18 10:05:00,
2013-05-18 06:10:00,68.5,66.7,30.13,South,189,4.0,7.0,94,0.00,,---,0.00,VWS V14.01,2013-05-18 10:10:00,
2013-05-18 06:15:00,68.5,66.7,30.13,South,189,4.0,7.0,94,0.00,,---,0.00,VWS V14.01,2013-05-18 10:15:00,
2013-05-18 06:20:00,68.5,67.0,30.13,South,182,7.0,10.0,95,0.00,,---,0.00,VWS V14.01,2013-05-18 10:20:00,
2013-05-18 06:25:00,68.6,67.1,30.13,SSW,204,6.0,10.0,95,0.00,,---,0.00,VWS V14.01,2013-05-18 10:25:00,
2013-05-18 06:30:00,68.6,67.1,30.13,SSW,202,6.0,8.0,95,0.00,,---,0.00,VWS V14.01,2013-05-18 10:30:00,
2013-05-18 06:35:00,68.6,67.1,30.13,SSW,202,8.0,9.0,95,0.00,,---,0.00,VWS V14.01,2013-05-18 10:35:00,
2013-05-18 06:40:00,68.7,67.2,30.14,SSW,200,4.0,9.0,95,0.00,,---,0.00,VWS V14.01,2013-05-18 10:40:00,
2013-05-18 06:45:00,68.7,67.2,30.14,South,190,7.0,9.0,95,0.00,,---,0.00,VWS V14.01,2013-05-18 10:45:00,
2013-05-18 06:50:00,68.7,67.2,30.14,SSW,199,4.0,9.0,95,0.00,,---,0.00,VWS V14.01,2013-05-18 10:50:00,
2013-05-18 06:55:00,68.7,67.2,30.14,SSW,200,8.0,10.0,95,0.00,,---,0.00,VWS V14.01,2013-05-18 10:55:00,
2013-05-18 07:00:00,68.8,67.3,30.14,SSW,192,5.0,9.0,95,0.00,,---,0.00,VWS V14.01,2013-05-18 11:00:00,
2013-05-18 07:05:00,68.9,67.4,30.14,South,190,5.0,9.0,95,0.00,,---,0.00,VWS V14.01,2013-05-18 11:05:00,
2013-05-18 07:10:00,69.0,67.5,30.14,SSW,196,7.0,9.0,95,0.00,,---,0.00,VWS V14.01,2013-05-18 11:10:00,
2013-05-18 07:15:00,69.1,67.6,30.14,South,182,9.0,10.0,95,0.00,,---,0.00,VWS V14.01,2013-05-18 11:15:00,
2013-05-18 07:20:00,69.2,67.7,30.14,South,190,8.0,10.0,95,0.00,,---,0.00,VWS V14.01,2013-05-18 11:20:00,
2013-05-18 07:25:00,69.3,67.8,30.14,SSW,193,5.0,10.0,95,0.00,,---,0.00,VWS V14.01,2013-05-18 11:25:00,
2013-05-18 07:30:00,69.3,67.8,30.15,SSW,208,7.0,7.0,95,0.00,,---,0.00,VWS V14.01,2013-05-18 11:30:00,
2013-05-18 07:36:00,69.4,67.9,30.14,SSW,200,4.0,9.0,95,0.00,,---,0.00,VWS V14.01,2013-05-18 11:36:00,
2013-05-18 07:41:00,69.4,67.9,30.14,SSW,200,5.0,10.0,95,0.00,,---,0.00,VWS V14.01,2013-05-18 11:41:00,
2013-05-18 07:46:00,69.4,67.9,30.15,South,183,5.0,10.0,95,0.00,,---,0.00,VWS V14.01,2013-05-18 11:46:00,
2013-05-18 07:51:00,69.5,68.0,30.15,SSW,204,5.0,10.0,95,0.00,,---,0.00,VWS V14.01,2013-05-18 11:51:00,
2013-05-18 07:56:00,69.6,68.4,30.15,SSW,199,7.0,10.0,96,0.00,,---,0.00,VWS V14.01,2013-05-18 11:56:00,
2013-05-18 08:01:00,69.6,68.4,30.14,SSW,213,7.0,9.0,96,0.00,,---,0.00,VWS V14.01,2013-05-18 12:01:00,
2013-05-18 08:06:00,69.7,68.5,30.15,SW,220,5.0,11.0,96,0.00,,---,0.00,VWS V14.01,2013-05-18 12:06:00,
2013-05-18 08:11:00,69.8,68.6,30.16,SSW,199,5.0,11.0,96,0.00,,---,0.00,VWS V14.01,2013-05-18 12:11:00,
2013-05-18 08:16:00,69.9,68.4,30.16,South,189,9.0,11.0,95,0.00,,---,0.00,VWS V14.01,2013-05-18 12:16:00,
2013-05-18 08:21:00,70.0,68.5,30.16,SSW,204,3.0,11.0,95,0.00,,---,0.00,VWS V14.01,2013-05-18 12:21:00,
2013-05-18 08:26:00,70.1,68.6,30.16,SSW,193,5.0,11.0,95,0.00,,---,0.00,VWS V14.01,2013-05-18 12:26:00,
2013-05-18 08:31:00,70.2,68.7,30.16,SSW,211,9.0,10.0,95,0.00,,---,0.00,VWS V14.01,2013-05-18 12:31:00,
2013-05-18 08:37:00,70.4,69.2,30.16,SSW,210,5.0,10.0,96,0.00,,---,0.00,VWS V14.01,2013-05-18 12:37:00,
2013-05-18 08:42:00,70.4,68.9,30.16,SW,216,6.0,11.0,95,0.00,,---,0.00,VWS V14.01,2013-05-18 12:42:00,
2013-05-18 08:47:00,70.5,69.0,30.16,SW,223,6.0,11.0,95,0.00,,---,0.00,VWS V14.01,2013-05-18 12:47:00,
2013-05-18 08:52:00,70.7,69.2,30.16,SW,218,6.0,12.0,95,0.00,,---,0.00,VWS V14.01,2013-05-18 12:52:00,
2013-05-18 08:57:00,70.9,69.4,30.16,SSW,207,8.0,12.0,95,0.00,,---,0.00,VWS V14.01,2013-05-18 12:57:00,
2013-05-18 09:02:00,70.9,69.4,30.16,SSW,209,6.0,13.0,95,0.00,,---,0.00,VWS V14.01,2013-05-18 13:02:00,
2013-05-18 09:07:00,70.8,69.3,30.16,SSW,205,4.0,13.0,95,0.00,,---,0.00,VWS V14.01,2013-05-18 13:07:00,
2013-05-18 09:12:00,70.8,69.3,30.17,SW,221,8.0,13.0,95,0.00,,---,0.00,VWS V14.01,2013-05-18 13:12:00,
2013-05-18 09:17:00,70.8,69.0,30.17,SSW,212,7.0,13.0,94,0.00,,---,0.00,VWS V14.01,2013-05-18 13:17:00,
2013-05-18 09:22:00,71.0,69.5,30.17,SW,226,8.0,13.0,95,0.00,,---,0.00,VWS V14.01,2013-05-18 13:22:00,
2013-05-18 09:27:00,71.2,69.4,30.16,SW,219,6.0,13.0,94,0.00,,---,0.00,VWS V14.01,2013-05-18 13:27:00,
2013-05-18 09:32:00,71.3,69.5,30.17,SSW,202,8.0,10.0,94,0.00,,---,0.00,VWS V14.01,2013-05-18 13:32:00,
2013-05-18 09:37:00,71.7,69.9,30.17,SW,219,7.0,10.0,94,0.00,,---,0.00,VWS V14.01,2013-05-18 13:37:00,
2013-05-18 09:42:00,71.9,70.1,30.17,SSW,202,6.0,11.0,94,0.00,,---,0.00,VWS V14.01,2013-05-18 13:42:00,
2013-05-18 09:47:00,72.0,69.9,30.17,SSW,205,7.0,11.0,93,0.00,,---,0.00,VWS V14.01,2013-05-18 13:47:00,
2013-05-18 09:52:00,72.0,69.9,30.17,SW,222,4.0,11.0,93,0.00,,---,0.00,VWS V14.01,2013-05-18 13:52:00,
2013-05-18 09:57:00,71.8,69.3,30.17,SW,217,10.0,10.0,92,0.00,,---,0.00,VWS V14.01,2013-05-18 13:57:00,
2013-05-18 10:02:00,71.8,69.3,30.17,SSW,211,6.0,13.0,92,0.00,,---,0.00,VWS V14.01,2013-05-18 14:02:00,
2013-05-18 10:07:00,71.9,69.4,30.17,SW,221,4.0,13.0,92,0.00,,---,0.00,VWS V14.01,2013-05-18 14:07:00,
2013-05-18 10:12:00,72.1,69.7,30.17,South,186,10.0,13.0,92,0.00,,---,0.00,VWS V14.01,2013-05-18 14:12:00,
2013-05-18 10:18:00,72.2,69.8,30.17,SW,220,5.0,13.0,92,0.00,,---,0.00,VWS V14.01,2013-05-18 14:18:00,
2013-05-18 10:23:00,72.5,70.1,30.17,SW,220,4.0,13.0,92,0.00,,---,0.00,VWS V14.01,2013-05-18 14:23:00,
2013-05-18 10:28:00,72.6,69.8,30.17,SSW,202,3.0,5.0,91,0.00,,---,0.00,VWS V14.01,2013-05-18 14:28:00,
2013-05-18 10:33:00,72.7,69.9,30.17,SSW,194,4.0,9.0,91,0.00,,---,0.00,VWS V14.01,2013-05-18 14:33:00,
2013-05-18 10:38:00,72.9,70.1,30.17,SSW,198,6.0,10.0,91,0.00,,---,0.00,VWS V14.01,2013-05-18 14:38:00,
2013-05-18 10:43:00,73.2,70.4,30.17,SSW,192,5.0,10.0,91,0.00,,---,0.00,VWS V14.01,2013-05-18 14:43:00,
2013-05-18 10:48:00,73.3,70.2,30.17,SSW,209,7.0,11.0,90,0.00,,---,0.00,VWS V14.01,2013-05-18 14:48:00,
2013-05-18 10:53:00,73.4,70.3,30.17,South,188,4.0,11.0,90,0.00,,---,0.00,VWS V14.01,2013-05-18 14:53:00,
2013-05-18 10:58:00,73.7,70.6,30.17,SSW,197,2.0,7.0,90,0.00,,---,0.00,VWS V14.01,2013-05-18 14:58:00,
2013-05-18 11:03:00,73.9,70.8,30.17,South,190,7.0,10.0,90,0.00,,---,0.00,VWS V14.01,2013-05-18 15:03:00,
2013-05-18 11:08:00,74.1,71.0,30.17,South,187,12.0,12.0,90,0.00,,---,0.00,VWS V14.01,2013-05-18 15:08:00,
2013-05-18 11:13:00,74.4,70.9,30.17,SSW,196,13.0,13.0,89,0.00,,---,0.00,VWS V14.01,2013-05-18 15:13:00,
2013-05-18 11:18:00,74.5,70.7,30.17,SSW,200,10.0,13.0,88,0.00,,---,0.00,VWS V14.01,2013-05-18 15:18:00,
2013-05-18 11:23:00,74.4,70.6,30.17,SSW,195,11.0,13.0,88,0.00,,---,0.00,VWS V14.01,2013-05-18 15:23:00,
2013-05-18 11:28:00,74.6,70.8,30.17,SSW,198,9.0,14.0,88,0.00,,---,0.00,VWS V14.01,2013-05-18 15:28:00,
2013-05-18 11:34:00,74.8,71.0,30.17,SSW,198,8.0,14.0,88,0.00,,---,0.00,VWS V14.01,2013-05-18 15:34:00,
2013-05-18 11:39:00,74.8,71.0,30.17,South,182,7.0,14.0,88,0.00,,---,0.00,VWS V14.01,2013-05-18 15:39:00,
2013-05-18 11:44:00,74.9,70.8,30.17,SSW,208,10.0,14.0,87,0.00,,---,0.00,VWS V14.01,2013-05-18 15:44:00,
2013-05-18 11:49:00,74.8,70.7,30.17,SSW,197,9.0,14.0,87,0.00,,---,0.00,VWS V14.01,2013-05-18 15:49:00,
2013-05-18 11:54:00,74.6,70.5,30.17,SSW,208,11.0,14.0,87,0.00,,---,0.00,VWS V14.01,2013-05-18 15:54:00,
2013-05-18 11:59:00,74.7,70.6,30.17,SSW,202,9.0,9.0,87,0.00,,---,0.00,VWS V14.01,2013-05-18 15:59:00,
2013-05-18 12:04:00,74.6,70.5,30.16,SSW,207,11.0,11.0,87,0.00,,---,0.00,VWS V14.01,2013-05-18 16:04:00,
2013-05-18 12:09:00,74.7,70.9,30.16,SSW,212,5.0,11.0,88,0.00,,---,0.00,VWS V14.01,2013-05-18 16:09:00,
2013-05-18 12:14:00,74.9,71.1,30.16,South,187,6.0,11.0,88,0.00,,---,0.00,VWS V14.01,2013-05-18 16:14:00,
2013-05-18 12:19:00,75.3,71.5,30.16,SSE,167,10.0,12.0,88,0.00,,---,0.00,VWS V14.01,2013-05-18 16:19:00,
2013-05-18 12:24:00,75.6,71.8,30.16,South,182,6.0,12.0,88,0.00,,---,0.00,VWS V14.01,2013-05-18 16:24:00,
2013-05-18 12:29:00,75.8,71.7,30.15,SSE,159,11.0,11.0,87,0.00,,---,0.00,VWS V14.01,2013-05-18 16:29:00,
2013-05-18 12:34:00,76.0,71.9,30.15,SSW,193,7.0,12.0,87,0.00,,---,0.00,VWS V14.01,2013-05-18 16:34:00,
2013-05-18 12:39:00,76.2,71.7,30.15,South,183,8.0,13.0,86,0.00,,---,0.00,VWS V14.01,2013-05-18 16:39:00,
2013-05-18 12:44:00,76.5,72.0,30.15,South,186,9.0,14.0,86,0.00,,---,0.00,VWS V14.01,2013-05-18 16:44:00,
2013-05-18 12:50:00,76.6,72.1,30.15,SSW,193,5.0,14.0,86,0.00,,---,0.00,VWS V14.01,2013-05-18 16:50:00,
2013-05-18 12:55:00,76.6,71.8,30.15,SSW,203,10.0,14.0,85,0.00,,---,0.00,VWS V14.01,2013-05-18 16:55:00,
2013-05-18 13:00:00,76.5,71.7,30.15,South,191,11.0,15.0,85,0.00,,---,0.00,VWS V14.01,2013-05-18 17:00:00,
2013-05-18 13:05:00,76.4,71.6,30.15,SSW,202,13.0,15.0,85,0.00,,---,0.00,VWS V14.01,2013-05-18 17:05:00,
2013-05-18 13:10:00,76.3,71.5,30.15,SSW,202,11.0,16.0,85,0.00,,---,0.00,VWS V14.01,2013-05-18 17:10:00,
2013-05-18 13:15:00,76.5,71.7,30.15,SSW,196,9.0,16.0,85,0.00,,---,0.00,VWS V14.01,2013-05-18 17:15:00,
2013-05-18 13:20:00,76.6,71.4,30.15,South,181,9.0,16.0,84,0.00,,---,0.00,VWS V14.01,2013-05-18 17:20:00,
2013-05-18 13:25:00,76.4,70.9,30.15,SSW,210,14.0,16.0,83,0.00,,---,0.00,VWS V14.01,2013-05-18 17:25:00,
2013-05-18 13:30:00,76.3,70.8,30.14,South,182,6.0,15.0,83,0.00,,---,0.00,VWS V14.01,2013-05-18 17:30:00,
2013-05-18 13:35:00,76.3,70.8,30.14,SSE,148,11.0,15.0,83,0.00,,---,0.00,VWS V14.01,2013-05-18 17:35:00,
2013-05-18 13:40:00,76.3,70.8,30.14,SSW,204,13.0,16.0,83,0.00,,---,0.00,VWS V14.01,2013-05-18 17:40:00,
2013-05-18 13:45:00,76.3,70.8,30.14,South,186,13.0,17.0,83,0.00,,---,0.00,VWS V14.01,2013-05-18 17:45:00,
2013-05-18 13:50:00,76.6,71.1,30.14,SSW,209,13.0,18.0,83,0.00,,---,0.00,VWS V14.01,2013-05-18 17:50:00,
2013-05-18 13:55:00,76.7,70.8,30.14,SSW,198,11.0,18.0,82,0.00,,---,0.00,VWS V14.01,2013-05-18 17:55:00,
2013-05-18 14:00:00,76.4,70.5,30.13,SSW,206,12.0,16.0,82,0.00,,---,0.00,VWS V14.01,2013-05-18 18:00:00,
2013-05-18 14:05:00,76.1,70.2,30.13,SSW,196,11.0,16.0,82,0.00,,---,0.00,VWS V14.01,2013-05-18 18:05:00,
2013-05-18 14:10:00,76.0,70.1,30.13,SSW,199,14.0,16.0,82,0.00,,---,0.00,VWS V14.01,2013-05-18 18:10:00,
2013-05-18 14:15:00,76.1,70.2,30.13,SSW,201,13.0,16.0,82,0.00,,---,0.00,VWS V14.01,2013-05-18 18:15:00,
2013-05-18 14:21:00,76.5,70.6,30.13,South,190,11.0,17.0,82,0.00,,---,0.00,VWS V14.01,2013-05-18 18:21:00,
2013-05-18 14:26:00,77.0,70.7,30.13,SSW,208,14.0,17.0,81,0.00,,---,0.00,VWS V14.01,2013-05-18 18:26:00,
2013-05-18 14:30:00,77.0,70.4,30.12,South,190,12.0,15.0,80,0.00,,---,0.00,VWS V14.01,2013-05-18 18:30:00,
2013-05-18 14:36:00,76.9,70.3,30.12,SSW,202,10.0,16.0,80,0.00,,---,0.00,VWS V14.01,2013-05-18 18:36:00,
2013-05-18 14:41:00,76.9,70.3,30.12,SSW,202,15.0,16.0,80,0.00,,---,0.00,VWS V14.01,2013-05-18 18:41:00,
2013-05-18 14:46:00,76.9,69.9,30.12,SSW,202,15.0,18.0,79,0.00,,---,0.00,VWS V14.01,2013-05-18 18:46:00,
2013-05-18 14:51:00,76.9,69.9,30.12,SSW,203,11.0,21.0,79,0.00,,---,0.00,VWS V14.01,2013-05-18 18:51:00,
2013-05-18 14:56:00,77.0,70.0,30.11,SSW,198,14.0,21.0,79,0.00,,---,0.00,VWS V14.01,2013-05-18 18:56:00,
2013-05-18 15:01:00,77.2,70.2,30.11,SSW,196,15.0,19.0,79,0.00,,---,0.00,VWS V14.01,2013-05-18 19:01:00,
2013-05-18 15:06:00,77.1,69.7,30.11,SSW,203,20.0,20.0,78,0.00,,---,0.00,VWS V14.01,2013-05-18 19:06:00,
2013-05-18 15:11:00,77.0,69.6,30.11,SSW,193,19.0,20.0,78,0.00,,---,0.00,VWS V14.01,2013-05-18 19:11:00,
2013-05-18 15:16:00,76.8,69.8,30.11,SSW,194,17.0,20.0,79,0.00,,---,0.00,VWS V14.01,2013-05-18 19:16:00,
2013-05-18 15:21:00,76.7,69.7,30.11,SSW,202,15.0,20.0,79,0.00,,---,0.00,VWS V14.01,2013-05-18 19:21:00,
2013-05-18 15:26:00,76.7,69.7,30.11,SSW,199,12.0,20.0,79,0.00,,---,0.00,VWS V14.01,2013-05-18 19:26:00,
2013-05-18 15:31:00,76.5,69.5,30.11,SSW,192,11.0,17.0,79,0.00,,---,0.00,VWS V14.01,2013-05-18 19:31:00,
2013-05-18 15:36:00,76.6,70.0,30.11,SSW,203,13.0,18.0,80,0.00,,---,0.00,VWS V14.01,2013-05-18 19:36:00,
2013-05-18 15:41:00,76.6,69.6,30.12,SSW,204,11.0,18.0,79,0.00,,---,0.00,VWS V14.01,2013-05-18 19:41:00,
2013-05-18 15:47:00,76.3,69.7,30.11,SSW,205,11.0,19.0,80,0.00,,---,0.00,VWS V14.01,2013-05-18 19:47:00,
2013-05-18 15:52:00,76.2,69.6,30.11,SSW,197,17.0,19.0,80,0.00,,---,0.00,VWS V14.01,2013-05-18 19:52:00,
2013-05-18 15:57:00,76.2,69.9,30.11,SSW,192,14.0,19.0,81,0.00,,---,0.00,VWS V14.01,2013-05-18 19:57:00,
2013-05-18 16:02:00,76.1,69.5,30.11,SSW,213,14.0,17.0,80,0.00,,---,0.00,VWS V14.01,2013-05-18 20:02:00,
2013-05-18 16:07:00,76.0,69.8,30.11,SSW,200,13.0,18.0,81,0.00,,---,0.00,VWS V14.01,2013-05-18 20:07:00,
2013-05-18 16:12:00,75.8,69.6,30.11,SSW,213,13.0,19.0,81,0.00,,---,0.00,VWS V14.01,2013-05-18 20:12:00,
2013-05-18 16:17:00,75.7,69.8,30.11,SSW,209,14.0,19.0,82,0.00,,---,0.00,VWS V14.01,2013-05-18 20:17:00,
2013-05-18 16:22:00,75.5,69.6,30.11,SSW,198,16.0,19.0,82,0.00,,---,0.00,VWS V14.01,2013-05-18 20:22:00,
2013-05-18 16:27:00,75.5,70.0,30.11,South,191,7.0,19.0,83,0.00,,---,0.00,VWS V14.01,2013-05-18 20:27:00,
2013-05-18 16:32:00,75.5,70.0,30.11,SSW,200,14.0,18.0,83,0.00,,---,0.00,VWS V14.01,2013-05-18 20:32:00,
2013-05-18 16:37:00,75.5,70.0,30.11,SSW,206,14.0,18.0,83,0.00,,---,0.00,VWS V14.01,2013-05-18 20:37:00,
2013-05-18 16:42:00,75.7,70.2,30.11,SSW,192,15.0,18.0,83,0.00,,---,0.00,VWS V14.01,2013-05-18 20:42:00,
2013-05-18 16:47:00,75.9,70.4,30.11,South,189,12.0,18.0,83,0.00,,---,0.00,VWS V14.01,2013-05-18 20:47:00,
2013-05-18 16:52:00,75.8,70.3,30.11,SSW,210,15.0,18.0,83,0.00,,---,0.00,VWS V14.01,2013-05-18 20:52:00,
2013-05-18 16:57:00,75.8,70.3,30.11,SSW,196,16.0,19.0,83,0.00,,---,0.00,VWS V14.01,2013-05-18 20:57:00,
2013-05-18 17:02:00,75.8,70.3,30.11,SSW,209,13.0,18.0,83,0.00,,---,0.00,VWS V14.01,2013-05-18 21:02:00,
2013-05-18 17:07:00,75.6,70.1,30.10,SSW,194,12.0,18.0,83,0.00,,---,0.00,VWS V14.01,2013-05-18 21:07:00,
2013-05-18 17:12:00,75.5,70.3,30.10,SSW,198,14.0,18.0,84,0.00,,---,0.00,VWS V14.01,2013-05-18 21:12:00,
2013-05-18 17:17:00,75.2,69.7,30.10,SSW,202,11.0,18.0,83,0.00,,---,0.00,VWS V14.01,2013-05-18 21:17:00,
2013-05-18 17:22:00,74.9,69.7,30.10,SSW,205,11.0,18.0,84,0.00,,---,0.00,VWS V14.01,2013-05-18 21:22:00,
2013-05-18 17:27:00,74.7,69.9,30.10,SW,216,13.0,18.0,85,0.00,,---,0.00,VWS V14.01,2013-05-18 21:27:00,
2013-05-18 17:32:00,74.4,69.6,30.11,South,186,7.0,14.0,85,0.00,,---,0.00,VWS V14.01,2013-05-18 21:32:00,
2013-05-18 17:37:00,74.2,69.4,30.11,SSW,196,11.0,16.0,85,0.00,,---,0.00,VWS V14.01,2013-05-18 21:37:00,
2013-05-18 17:42:00,74.1,69.7,30.11,SSW,195,11.0,16.0,86,0.00,,---,0.00,VWS V14.01,2013-05-18 21:42:00,
2013-05-18 17:48:00,74.0,69.6,30.11,SSW,192,7.0,16.0,86,0.00,,---,0.00,VWS V14.01,2013-05-18 21:48:00,
2013-05-18 17:53:00,74.2,70.1,30.11,SSW,206,5.0,16.0,87,0.00,,---,0.00,VWS V14.01,2013-05-18 21:53:00,
2013-05-18 17:58:00,74.2,70.1,30.10,SSW,201,11.0,12.0,87,0.00,,---,0.00,VWS V14.01,2013-05-18 21:58:00,
2013-05-18 18:03:00,74.0,69.6,30.10,SSW,194,7.0,14.0,86,0.00,,---,0.00,VWS V14.01,2013-05-18 22:03:00,
2013-05-18 18:08:00,73.7,69.6,30.11,SSW,207,10.0,15.0,87,0.00,,---,0.00,VWS V14.01,2013-05-18 22:08:00,
2013-05-18 18:13:00,73.7,69.6,30.11,SSW,209,14.0,15.0,87,0.00,,---,0.00,VWS V14.01,2013-05-18 22:13:00,
2013-05-18 18:18:00,73.5,69.7,30.11,SW,217,8.0,15.0,88,0.00,,---,0.00,VWS V14.01,2013-05-18 22:18:00,
2013-05-18 18:23:00,73.5,69.7,30.11,SW,214,8.0,15.0,88,0.00,,---,0.00,VWS V14.01,2013-05-18 22:23:00,
2013-05-18 18:28:00,73.2,69.4,30.11,SSW,212,6.0,7.0,88,0.00,,---,0.00,VWS V14.01,2013-05-18 22:28:00,
2013-05-18 18:33:00,73.0,69.2,30.11,SSW,199,7.0,11.0,88,0.00,,---,0.00,VWS V14.01,2013-05-18 22:33:00,
2013-05-18 18:39:00,72.8,69.4,30.11,SSW,202,11.0,12.0,89,0.00,,---,0.00,VWS V14.01,2013-05-18 22:39:00,
2013-05-18 18:44:00,72.7,69.3,30.11,SW,214,10.0,12.0,89,0.00,,---,0.00,VWS V14.01,2013-05-18 22:44:00,
2013-05-18 18:49:00,72.6,69.2,30.11,SSW,209,8.0,12.0,89,0.00,,---,0.00,VWS V14.01,2013-05-18 22:49:00,
2013-05-18 18:54:00,72.5,69.1,30.11,SSW,199,7.0,13.0,89,0.00,,---,0.00,VWS V14.01,2013-05-18 22:54:00,
2013-05-18 18:59:00,72.4,69.3,30.12,SSW,201,8.0,10.0,90,0.00,,---,0.00,VWS V14.01,2013-05-18 22:59:00,
2013-05-18 19:04:00,72.4,69.3,30.12,SW,214,5.0,11.0,90,0.00,,---,0.00,VWS V14.01,2013-05-18 23:04:00,
2013-05-18 19:09:00,72.3,69.2,30.12,SW,219,6.0,11.0,90,0.00,,---,0.00,VWS V14.01,2013-05-18 23:09:00,
2013-05-18 19:14:00,72.2,69.1,30.12,SSW,193,6.0,11.0,90,0.00,,---,0.00,VWS V14.01,2013-05-18 23:14:00,
2013-05-18 19:19:00,72.1,69.0,30.12,SSW,210,7.0,11.0,90,0.00,,---,0.00,VWS V14.01,2013-05-18 23:19:00,
2013-05-18 19:24:00,72.1,69.3,30.12,SSW,207,5.0,11.0,91,0.00,,---,0.00,VWS V14.01,2013-05-18 23:24:00,
2013-05-18 19:30:00,72.1,69.3,30.12,SSW,199,4.0,6.0,91,0.00,,---,0.00,VWS V14.01,2013-05-18 23:30:00,
2013-05-18 19:35:00,72.0,69.2,30.12,SSW,208,6.0,9.0,91,0.00,,---,0.00,VWS V14.01,2013-05-18 23:35:00,
2013-05-18 19:40:00,71.9,69.1,30.12,SSW,196,6.0,10.0,91,0.00,,---,0.00,VWS V14.01,2013-05-18 23:40:00,
2013-05-18 19:45:00,71.8,69.0,30.12,SSW,205,6.0,10.0,91,0.00,,---,0.00,VWS V14.01,2013-05-18 23:45:00,
2013-05-18 19:50:00,71.8,69.0,30.12,SSW,195,5.0,10.0,91,0.00,,---,0.00,VWS V14.01,2013-05-18 23:50:00,
2013-05-18 19:55:00,71.7,68.9,30.12,South,182,9.0,10.0,91,0.00,,---,0.00,VWS V14.01,2013-05-18 23:55:00,
2013-05-18 20:00:00,71.6,68.8,30.13,SSW,200,4.0,7.0,91,0.00,,---,0.00,VWS V14.01,2013-05-19 00:00:00,
2013-05-18 20:05:00,71.6,69.2,30.13,SSW,193,4.0,9.0,92,0.00,,---,0.00,VWS V14.01,2013-05-19 00:05:00,
2013-05-18 20:10:00,71.5,69.1,30.13,South,191,5.0,9.0,92,0.00,,---,0.00,VWS V14.01,2013-05-19 00:10:00,
2013-05-18 20:15:00,71.4,69.0,30.13,SSW,203,7.0,9.0,92,0.00,,---,0.00,VWS V14.01,2013-05-19 00:15:00,
2013-05-18 20:20:00,71.4,69.0,30.13,SSW,202,6.0,9.0,92,0.00,,---,0.00,VWS V14.01,2013-05-19 00:20:00,
2013-05-18 20:25:00,71.3,68.9,30.13,SSW,196,6.0,9.0,92,0.00,,---,0.00,VWS V14.01,2013-05-19 00:25:00,
2013-05-18 20:30:00,71.3,68.9,30.13,SSW,199,4.0,7.0,92,0.00,,---,0.00,VWS V14.01,2013-05-19 00:30:00,
2013-05-18 20:36:00,71.2,68.8,30.13,SSW,204,5.0,10.0,92,0.00,,---,0.00,VWS V14.01,2013-05-19 00:36:00,
2013-05-18 20:41:00,71.2,69.1,30.13,SSW,207,5.0,10.0,93,0.00,,---,0.00,VWS V14.01,2013-05-19 00:41:00,
2013-05-18 20:46:00,71.1,69.0,30.13,SSW,194,2.0,10.0,93,0.00,,---,0.00,VWS V14.01,2013-05-19 00:46:00,
2013-05-18 20:51:00,71.1,69.0,30.12,SSW,198,3.0,10.0,93,0.00,,---,0.00,VWS V14.01,2013-05-19 00:51:00,
2013-05-18 20:56:00,71.0,68.9,30.13,SSW,192,4.0,10.0,93,0.00,,---,0.00,VWS V14.01,2013-05-19 00:56:00,
2013-05-18 21:01:00,71.0,68.9,30.13,SSW,194,6.0,8.0,93,0.00,,---,0.00,VWS V14.01,2013-05-19 01:01:00,
2013-05-18 21:06:00,71.0,68.9,30.13,SSW,194,5.0,8.0,93,0.00,,---,0.00,VWS V14.01,2013-05-19 01:06:00,
2013-05-18 21:11:00,70.9,68.8,30.13,SSW,192,5.0,8.0,93,0.00,,---,0.00,VWS V14.01,2013-05-19 01:11:00,
2013-05-18 21:16:00,70.9,68.8,30.13,South,187,5.0,8.0,93,0.00,,---,0.00,VWS V14.01,2013-05-19 01:16:00,
2013-05-18 21:21:00,70.8,68.7,30.12,SSW,192,5.0,8.0,93,0.00,,---,0.00,VWS V14.01,2013-05-19 01:21:00,
2013-05-18 21:26:00,70.7,68.6,30.13,South,186,5.0,8.0,93,0.00,,---,0.00,VWS V14.01,2013-05-19 01:26:00,
2013-05-18 21:31:00,70.7,68.9,30.13,South,183,3.0,6.0,94,0.00,,---,0.00,VWS V14.01,2013-05-19 01:31:00,
2013-05-18 21:36:00,70.7,68.6,30.13,South,188,5.0,6.0,93,0.00,,---,0.00,VWS V14.01,2013-05-19 01:36:00,
2013-05-18 21:42:00,70.6,68.8,30.13,SSW,192,6.0,7.0,94,0.00,,---,0.00,VWS V14.01,2013-05-19 01:42:00,
2013-05-18 21:47:00,70.6,68.8,30.13,SSW,193,5.0,7.0,94,0.00,,---,0.00,VWS V14.01,2013-05-19 01:47:00,
2013-05-18 21:52:00,70.5,68.7,30.13,South,184,3.0,7.0,94,0.00,,---,0.00,VWS V14.01,2013-05-19 01:52:00,
2013-05-18 21:57:00,70.6,68.8,30.13,South,178,3.0,7.0,94,0.00,,---,0.00,VWS V14.01,2013-05-19 01:57:00,
2013-05-18 22:02:00,70.5,68.7,30.13,SSE,167,4.0,7.0,94,0.00,,---,0.00,VWS V14.01,2013-05-19 02:02:00,
2013-05-18 22:07:00,70.5,68.7,30.13,South,180,7.0,7.0,94,0.00,,---,0.00,VWS V14.01,2013-05-19 02:07:00,
2013-05-18 22:12:00,70.5,68.7,30.13,SSW,194,4.0,8.0,94,0.00,,---,0.00,VWS V14.01,2013-05-19 02:12:00,
2013-05-18 22:17:00,70.4,68.6,30.13,South,178,9.0,9.0,94,0.00,,---,0.00,VWS V14.01,2013-05-19 02:17:00,
2013-05-18 22:22:00,70.4,68.6,30.13,South,174,5.0,9.0,94,0.00,,---,0.00,VWS V14.01,2013-05-19 02:22:00,
2013-05-18 22:27:00,70.4,68.6,30.13,South,184,4.0,9.0,94,0.00,,---,0.00,VWS V14.01,2013-05-19 02:27:00,
2013-05-18 22:32:00,70.4,68.6,30.13,South,189,7.0,10.0,94,0.00,,---,0.00,VWS V14.01,2013-05-19 02:32:00,
2013-05-18 22:38:00,70.3,68.5,30.14,South,190,7.0,10.0,94,0.00,,---,0.00,VWS V14.01,2013-05-19 02:38:00,
2013-05-18 22:42:00,70.3,68.8,30.14,SSW,194,5.0,10.0,95,0.00,,---,0.00,VWS V14.01,2013-05-19 02:42:00,
2013-05-18 22:48:00,70.3,68.8,30.14,South,185,4.0,10.0,95,0.00,,---,0.00,VWS V14.01,2013-05-19 02:48:00,
2013-05-18 22:53:00,70.3,68.8,30.14,South,185,5.0,10.0,95,0.00,,---,0.00,VWS V14.01,2013-05-19 02:53:00,
2013-05-18 22:58:00,70.3,68.8,30.14,South,182,2.0,6.0,95,0.00,,---,0.00,VWS V14.01,2013-05-19 02:58:00,
2013-05-18 23:03:00,70.4,68.9,30.14,SSE,165,6.0,10.0,95,0.00,,---,0.00,VWS V14.01,2013-05-19 03:03:00,
2013-05-18 23:08:00,70.4,68.9,30.14,SSW,196,5.0,10.0,95,0.00,,---,0.00,VWS V14.01,2013-05-19 03:08:00,
2013-05-18 23:13:00,70.4,68.9,30.13,SSW,192,7.0,10.0,95,0.00,,---,0.00,VWS V14.01,2013-05-19 03:13:00,
2013-05-18 23:18:00,70.4,68.9,30.13,SSW,192,4.0,10.0,95,0.00,,---,0.00,VWS V14.01,2013-05-19 03:18:00,
2013-05-18 23:23:00,70.4,68.9,30.13,SSW,192,6.0,10.0,95,0.00,,---,0.00,VWS V14.01,2013-05-19 03:23:00,
2013-05-18 23:28:00,70.4,68.9,30.13,SSW,196,9.0,9.0,95,0.00,,---,0.00,VWS V14.01,2013-05-19 03:28:00,
2013-05-18 23:33:00,70.4,68.9,30.13,SSW,196,8.0,10.0,95,0.00,,---,0.00,VWS V14.01,2013-05-19 03:33:00,
2013-05-18 23:38:00,70.4,68.9,30.13,SSW,192,10.0,10.0,95,0.00,,---,0.00,VWS V14.01,2013-05-19 03:38:00,
2013-05-18 23:43:00,70.4,68.9,30.13,SSW,205,7.0,10.0,95,0.00,,---,0.00,VWS V14.01,2013-05-19 03:43:00,
2013-05-18 23:48:00,70.5,69.0,30.13,SSW,192,7.0,10.0,95,0.00,,---,0.00,VWS V14.01,2013-05-19 03:48:00,
2013-05-18 23:53:00,70.5,69.0,30.13,SSW,194,9.0,10.0,95,0.00,,---,0.00,VWS V14.01,2013-05-19 03:53:00,
2013-05-18 23:59:00,70.5,69.0,30.14,SSW,198,10.0,11.0,95,0.00,,---,0.00,VWS V14.01,2013-05-19 03:59:00,